Location: Unspecified
(0.0000°N, 0.0000°E)
Time: 20:20:03
(UTC+00:00)

ISS - Pass Details

Date: 11 May 2026
Orbit: 414 x 424 km, 51.6° (Epoch: 10 May)

Event Time Altitude Azimuth Distance (km) Brightness Sun altitude
Exits shadow 04:41:07 - 331° (NNW) 2,168 -0.2 -17.9°
Reaches altitude 10° 04:42:47 10° 334° (NNW) 1,491 -1.0 -17.5°
Maximum altitude 04:46:05 59° 54° (NE) 487 -3.2 -16.7°
Drops below altitude 10° 04:49:25 10° 135° (SE) 1,502 -0.6 -15.9°
Sets 04:51:32 0° 139° (SE) 2,370 0.4 -15.4°
